sat.trackr.live / text

‹ back to catalog

STARLINK-32750

NORAD 62572 · 2025-006U

PAYLOAD ACTIVE UNKNOWN

§ Identity

Operator
Country
US
Launch date
2025-01-10
Launch site
AFETR
Launch vehicle
Mass (kg)
RCS (m²)

Purposes: comms

External: N2YO · Heavens-Above · Gunter

§ Orbital elements

Epoch: 2026-05-24T21:46:26.145984Z

Period
94.27 min
Inclination
42.9996°
Eccentricity
0.0001123
Mean motion
15.27588633 rev/d
Perigee alt
482.3 km
Apogee alt
483.8 km
Semi-major
6,861.2 km
B*
7.5396e-4
RAAN
221.7408°
Arg perigee
276.3874°
Mean anomaly
83.6849°
Rev number
7,652

§ Raw data

STARLINK-327501 62572U 25006U   26144.90724706  .00020549  00000+0  75396-3 0  99992 62572  42.9996 221.7408 0001123 276.3874  83.6849 15.27588633 76527

JSON: /api/v1/satellites/62572 · /tle

For live sub-satellite position, see the globe view (requires WebGL).

§ Visibility from observer

Set your observer location to see the next 7 days of passes ≥ 10°. The values pass through the URL so the page stays shareable.

No JS? Fill the form by hand. The geolocation button needs JavaScript.